Location: Castifao
(42.5040°N, 9.1124°E)
Time: 15:23:54
(UTC+00:00)

Cosmos 1953 Rocket - Pass Details

Date: 23 January 2020
Orbit: 603 x 636 km, 82.5° (Epoch: 25 February)

Event Time Altitude Azimuth Distance (km) Brightness Sun altitude
Rises 17:48:59 0° 187° (S) 2,916 7.3 -15.4°
Reaches altitude 10° 17:51:12 10° 188° (S) 2,014 6.4 -15.8°
Maximum altitude 17:55:41 87° 278° (W) 643 3.6 -16.7°
Drops below altitude 10° 18:00:13 10° 7° (N) 2,031 6.0 -17.5°
Sets 18:02:28 0° 8° (N) 2,942 6.8 -17.9°
